Location: Sungai Jaoh
(2.9167°N, 113.9167°E)
Time: 15:41:37
(UTC+00:00)

Cosmos 1898 Rocket - Pass Details

Date: 30 November 2020
Orbit: 754 x 783 km, 74.0° (Epoch: 25 January)

Event Time Altitude Azimuth Distance (km) Brightness Sun altitude
Rises 20:38:50 0° 202° (SSW) 3,231 6.8 -23.0°
Reaches altitude 10° 20:41:15 10° 207° (SSW) 2,308 5.9 -22.4°
Maximum altitude 20:46:20 52° 282° (WNW) 956 3.6 -21.2°
Drops below altitude 10° 20:51:27 10° 358° (N) 2,318 5.8 -20.1°
Sets 20:53:53 0° 3° (N) 3,247 6.6 -19.5°
